Joint Base Elmendorf-Richardson, AK

10:05 AM AKST on January 22, 2017 (GMT -0900)
Elmendorf Air Force Base

Weather History for PAED - December, 2012

Change the Weather History Date:

Saturday, December 8, 2012

  Actual Average Record
Temperature  
Mean Temperature 8 °F -  
Max Temperature 19 °F 20 °F 48 °F (2005)
Min Temperature -2 °F 9 °F -25 °F (1975)
Degree Days  
Heating Degree Days 56    
Moisture  
Dew Point 11 °F    
Average Humidity 83    
Maximum Humidity 93    
Minimum Humidity 58    
Precipitation  
Precipitation 0.08 in - - ()
Sea Level Pressure  
Sea Level Pressure 29.50 in    
Wind  
Wind Speed 7 mph (ENE)    
Max Wind Speed 17 mph    
Max Gust Speed 23 mph    
Visibility 4 miles    
Events Snow    
Averages and records for this station are not official NWS values.
T = Trace of Precipitation, MM = Missing Value Source: NWS Daily Summary

Daily Weather History Graph

Daily Weather History Graph

Search for Another Location

Airport or City:

Trip Planner

Search our weather history database for the weather conditions in past years. The results will help you decide how hot, cold, wet, or windy it might be!

Date:

Astronomy

Dec. 08, 2012 Rise Set
Actual Time 10:00 AM AKST 3:42 PM AKST
Civil Twilight 8:59 AM AKST 4:42 PM AKST
Nautical Twilight 8:00 AM AKST 5:42 PM AKST
Astronomical Twilight 7:07 AM AKST 6:35 PM AKST
Moon 3:16 AM AKST (12/8) 1:29 PM AKST (12/8)
Length of Visible Light 7h 43m
Length of Day
5h 42m
Waning Crescent, 27% of the Moon is Illuminated
Dec 8
Waning Crescent
Dec 12
New
Dec 19
First Quarter
Dec 28
Full
Jan 4
Last Quarter

Hourly Weather History & Observations

Time (AKST) Temp. Windchill Dew Point Humidity Pressure Visibility Wind Dir Wind Speed Gust Speed Precip Events Conditions
12:55 AM 3.0 °F -6.4 °F -1.5 °F 82% 29.96 in 10.0 mi ESE 4.6 mph - N/A   Clear
1:55 AM -0.6 °F -10.6 °F -5.4 °F 80% 29.96 in 10.0 mi East 4.6 mph - N/A   Clear
2:55 AM -2.2 °F -15.6 °F -7.1 °F 80% 29.95 in 10.0 mi East 6.9 mph - N/A   Clear
3:55 AM 4.5 °F -9.8 °F 0.3 °F 83% 29.93 in 10.0 mi East 9.2 mph - N/A   Clear
4:55 AM 2.5 °F - -2.0 °F 81% 29.92 in 10.0 mi Calm Calm - N/A   Clear
5:55 AM -1.7 °F -11.8 °F -6.7 °F 79% 29.91 in 10.0 mi ESE 4.6 mph - N/A   Clear
6:55 AM 1.4 °F -6.2 °F -3.1 °F 81% 29.89 in 10.0 mi Variable 3.5 mph - N/A   Mostly Cloudy
7:55 AM 6.8 °F -4.8 °F 2.8 °F 84% 29.86 in 10.0 mi ESE 6.9 mph - N/A   Overcast
8:55 AM 6.8 °F - 1.4 °F 79% 29.84 in 10.0 mi Calm Calm - N/A   Overcast
9:55 AM 7.5 °F 0.8 °F 1.9 °F 78% 29.81 in 10.0 mi Variable 3.5 mph - N/A   Overcast
10:55 AM 11.7 °F - 1.9 °F 65% 29.78 in 10.0 mi Calm Calm - N/A   Overcast
11:55 AM 11.8 °F - 2.1 °F 65% 29.76 in 10.0 mi Calm Calm - N/A   Partly Cloudy
12:55 PM 12.9 °F 5.2 °F 2.7 °F 64% 29.70 in 10.0 mi Variable 4.6 mph - N/A   Clear
1:55 PM 14.5 °F 4.6 °F 2.7 °F 59% 29.65 in 10.0 mi Variable 6.9 mph - N/A   Clear
2:55 PM 15.4 °F 4.6 °F 3.0 °F 58% 29.58 in 10.0 mi ENE 8.1 mph - N/A   Scattered Clouds
3:13 PM 15.8 °F 4.2 °F 3.2 °F 58% 29.56 in 10.0 mi NE 9.2 mph - N/A Snow Light Snow
3:37 PM 15.8 °F 7.2 °F 5.0 °F 62% 29.55 in 8.0 mi Variable 5.8 mph - N/A Snow Light Snow
3:48 PM 15.8 °F 7.2 °F 6.8 °F 68% 29.54 in 4.0 mi Variable 5.8 mph - N/A Snow Light Snow
3:50 PM 15.8 °F 6.1 °F 6.8 °F 68% 29.54 in 3.0 mi Variable 6.9 mph - N/A Snow Light Snow
3:55 PM 15.6 °F 5.9 °F 7.7 °F 71% 29.54 in 3.0 mi ENE 6.9 mph - 0.00 in Snow Light Snow
3:58 PM 15.8 °F 5.1 °F 8.6 °F 73% 29.54 in 3.0 mi ENE 8.1 mph - N/A Snow Light Snow
4:03 PM 15.8 °F 7.2 °F 8.6 °F 73% 29.54 in 2.5 mi Variable 5.8 mph - N/A Snow Light Snow
4:07 PM 15.8 °F 7.2 °F 8.6 °F 73% 29.54 in 1.8 mi Variable 5.8 mph - N/A Snow Light Snow
4:09 PM 15.8 °F 6.1 °F 10.4 °F 79% 29.53 in 1.8 mi ENE 6.9 mph - N/A Snow Light Snow
4:16 PM 15.8 °F 8.6 °F 10.4 °F 79% 29.53 in 1.8 mi East 4.6 mph - N/A Snow Light Snow
4:19 PM 15.8 °F 6.1 °F 10.4 °F 79% 29.53 in 1.5 mi East 6.9 mph - N/A Snow Light Snow
4:26 PM 15.8 °F 7.2 °F 10.4 °F 79% 29.53 in 1.8 mi ENE 5.8 mph - N/A Snow Light Snow
4:31 PM 15.8 °F 7.2 °F 12.2 °F 86% 29.53 in 2.0 mi ENE 5.8 mph - N/A Snow Light Snow
4:34 PM 15.8 °F 5.1 °F 12.2 °F 86% 29.53 in 2.0 mi ENE 8.1 mph - N/A Snow Light Snow
4:36 PM 15.8 °F 5.1 °F 12.2 °F 86% 29.53 in 1.8 mi East 8.1 mph - N/A Snow Light Snow
4:43 PM 15.8 °F 5.1 °F 12.2 °F 86% 29.53 in 1.8 mi ENE 8.1 mph - N/A Snow Light Snow
4:44 PM 15.8 °F 5.1 °F 12.2 °F 86% 29.53 in 1.5 mi ENE 8.1 mph - N/A Snow Light Snow
4:45 PM 15.8 °F 5.1 °F 12.2 °F 86% 29.53 in 1.8 mi ENE 8.1 mph - N/A Snow Light Snow
4:46 PM 15.8 °F 6.1 °F 12.2 °F 86% 29.53 in 1.5 mi Variable 6.9 mph - N/A Snow Light Snow
4:52 PM 15.8 °F 5.1 °F 12.2 °F 86% 29.53 in 1.2 mi East 8.1 mph - N/A Snow Light Snow
4:55 PM 15.6 °F 7.0 °F 12.0 °F 86% 29.52 in 1.2 mi ENE 5.8 mph - 0.01 in Snow Light Snow
4:59 PM 15.8 °F 4.2 °F 12.2 °F 86% 29.52 in 1.2 mi ENE 9.2 mph - N/A Snow Light Snow
5:04 PM 15.8 °F 5.1 °F 12.2 °F 86% 29.52 in 1.2 mi ENE 8.1 mph - N/A Snow Light Snow
5:09 PM 15.8 °F 6.1 °F 12.2 °F 86% 29.52 in 1.0 mi East 6.9 mph - N/A Snow Light Snow
5:10 PM 15.8 °F 7.2 °F 12.2 °F 86% 29.52 in 1.0 mi Variable 5.8 mph - N/A Snow Light Snow
5:19 PM 15.8 °F 2.7 °F 12.2 °F 86% 29.51 in 1.2 mi ENE 11.5 mph - N/A Snow Light Snow
5:43 PM 15.8 °F 5.1 °F 12.2 °F 86% 29.49 in 1.2 mi East 8.1 mph - N/A Snow Light Snow
5:47 PM 15.8 °F 3.4 °F 12.2 °F 86% 29.48 in 1.0 mi ENE 10.4 mph - N/A Snow Light Snow
5:48 PM 15.8 °F 4.2 °F 14.0 °F 93% 29.48 in 1.2 mi ENE 9.2 mph - N/A Snow Light Snow
5:55 PM 16.9 °F 5.5 °F 13.3 °F 86% 29.47 in 1.2 mi ENE 9.2 mph - 0.03 in Snow Light Snow
6:01 PM 17.6 °F 5.0 °F 14.0 °F 86% 29.46 in 1.2 mi ENE 11.5 mph - N/A Snow Light Snow
6:03 PM 17.6 °F 5.0 °F 14.0 °F 86% 29.46 in 1.0 mi ENE 11.5 mph - N/A Snow Light Snow
6:16 PM 17.6 °F 5.0 °F 14.0 °F 86% 29.44 in 1.0 mi ENE 11.5 mph - N/A Snow Light Snow
6:33 PM 17.6 °F 3.7 °F 14.0 °F 86% 29.43 in 0.8 mi ENE 13.8 mph - N/A Snow Light Snow
6:43 PM 17.6 °F 6.4 °F 14.0 °F 86% 29.42 in 0.8 mi ENE 9.2 mph 19.6 mph N/A Snow Light Snow
6:44 PM 17.6 °F 5.7 °F 14.0 °F 86% 29.41 in 0.8 mi ENE 10.4 mph - N/A Snow Light Snow
6:47 PM 17.6 °F 6.4 °F 14.0 °F 86% 29.42 in 0.8 mi East 9.2 mph - N/A Snow Light Snow
6:49 PM 17.6 °F 4.3 °F 14.0 °F 86% 29.41 in 0.8 mi ENE 12.7 mph - N/A Snow Light Snow
6:55 PM 18.0 °F 3.1 °F 14.7 °F 87% 29.40 in 0.8 mi ENE 16.1 mph 23.0 mph 0.02 in Snow Light Snow
7:00 PM 17.6 °F 3.7 °F 14.0 °F 86% 29.40 in 0.8 mi ENE 13.8 mph 23.0 mph N/A Snow Light Snow
7:02 PM 17.6 °F 3.2 °F 14.0 °F 86% 29.39 in 1.0 mi NE 15.0 mph 23.0 mph N/A Snow Light Snow
7:08 PM 17.6 °F 3.2 °F 15.8 °F 93% 29.39 in 1.0 mi NE 15.0 mph - N/A Snow Light Snow
7:09 PM 17.6 °F 2.2 °F 15.8 °F 93% 29.39 in 1.2 mi NE 17.3 mph - N/A Snow Light Snow
7:10 PM 17.6 °F 2.7 °F 15.8 °F 93% 29.39 in 1.2 mi NE 16.1 mph 21.9 mph N/A Snow Light Snow
7:13 PM 17.6 °F 3.7 °F 15.8 °F 93% 29.39 in 1.5 mi ENE 13.8 mph - N/A Snow Light Snow
7:14 PM 17.6 °F 3.7 °F 15.8 °F 93% 29.40 in 1.5 mi ENE 13.8 mph - N/A Snow Light Snow
7:16 PM 17.6 °F 4.3 °F 14.0 °F 86% 29.39 in 1.8 mi ENE 12.7 mph - N/A Snow Light Snow
7:19 PM 17.6 °F 4.3 °F 14.0 °F 86% 29.39 in 2.0 mi NE 12.7 mph - N/A Snow Light Snow
7:27 PM 17.6 °F 5.7 °F 14.0 °F 86% 29.39 in 2.0 mi ENE 10.4 mph - N/A Snow Light Snow
7:55 PM 18.5 °F 9.3 °F 15.3 °F 87% 29.39 in 2.5 mi ENE 6.9 mph - 0.01 in Snow Light Snow
8:00 PM 19.4 °F 11.5 °F 15.8 °F 86% 29.38 in 2.5 mi Variable 5.8 mph - N/A Snow Light Snow
8:20 PM 17.6 °F 7.3 °F 15.8 °F 93% 29.38 in 2.5 mi ENE 8.1 mph - N/A Snow Light Snow
8:21 PM 17.6 °F 8.2 °F 15.8 °F 93% 29.38 in 2.5 mi Variable 6.9 mph - N/A Snow Light Snow
8:23 PM 17.6 °F 5.7 °F 15.8 °F 93% 29.37 in 2.5 mi NE 10.4 mph - N/A Snow Light Snow
8:26 PM 17.6 °F 6.4 °F 15.8 °F 93% 29.37 in 2.5 mi NE 9.2 mph - N/A Snow Light Snow
8:27 PM 17.6 °F 8.2 °F 15.8 °F 93% 29.37 in 3.0 mi Variable 6.9 mph - N/A Snow Light Snow
8:29 PM 17.6 °F 7.3 °F 15.8 °F 93% 29.37 in 2.5 mi East 8.1 mph - N/A Snow Light Snow
8:32 PM 17.6 °F 8.2 °F 15.8 °F 93% 29.37 in 3.0 mi Variable 6.9 mph - N/A Snow Light Snow
8:44 PM 17.6 °F 5.7 °F 15.8 °F 93% 29.36 in 4.0 mi NE 10.4 mph - N/A Snow Light Snow
8:55 PM 18.7 °F 8.6 °F 15.6 °F 88% 29.36 in 4.0 mi ENE 8.1 mph - 0.01 in Snow Light Snow
8:59 PM 19.4 °F 10.4 °F 15.8 °F 86% 29.36 in 4.0 mi Variable 6.9 mph - N/A Snow Light Snow
9:33 PM 19.4 °F 10.4 °F 15.8 °F 86% 29.34 in 5.0 mi ENE 6.9 mph - N/A Snow Light Snow
9:34 PM 19.4 °F 10.4 °F 15.8 °F 86% 29.35 in 5.0 mi Variable 6.9 mph - N/A Snow Light Snow
9:39 PM 19.4 °F 8.6 °F 15.8 °F 86% 29.34 in 6.0 mi ENE 9.2 mph - N/A Snow Light Snow
9:55 PM 19.2 °F 9.3 °F 16.0 °F 87% 29.33 in 8.0 mi ENE 8.1 mph - 0.00 in Snow Light Snow
10:21 PM 19.4 °F 10.4 °F 15.8 °F 86% 29.32 in 10.0 mi ENE 6.9 mph - N/A Snow Light Snow
10:25 PM 19.4 °F 9.5 °F 15.8 °F 86% 29.33 in 9.0 mi East 8.1 mph - N/A Snow Light Snow
10:40 PM 19.4 °F 7.9 °F 15.8 °F 86% 29.31 in 10.0 mi ENE 10.4 mph - N/A Snow Light Snow
10:55 PM 19.4 °F 9.5 °F 15.6 °F 85% 29.31 in 10.0 mi ENE 8.1 mph - 0.00 in Snow Light Snow
11:37 PM 19.4 °F 10.4 °F 15.8 °F 86% 29.32 in 9.0 mi ENE 6.9 mph - N/A Snow Light Snow
11:38 PM 19.4 °F 9.5 °F 15.8 °F 86% 29.32 in 9.0 mi ENE 8.1 mph - N/A Snow Light Snow
11:44 PM 19.4 °F 7.9 °F 15.8 °F 86% 29.32 in 9.0 mi ENE 10.4 mph - N/A Snow Light Snow
11:55 PM 19.8 °F 9.9 °F 15.4 °F 83% 29.32 in 7.0 mi East 8.1 mph - 0.00 in Snow Light Snow